Location: ????????
(55.0097°N, 38.5678°E)
Time: 05:01:44
(UTC+00:00)

Cosmos 192 - Pass Details

Date: 14 April 2024
Orbit: 699 x 710 km, 74.0° (Epoch: 23 May)

Event Time Altitude Azimuth Distance (km) Brightness Sun altitude
Rises 00:25:45 0° 330° (NNW) 3,097 7.8 -15.4°
Reaches altitude 10° 00:28:06 10° 326° (NNW) 2,175 7.0 -15.1°
Maximum altitude 00:32:54 56° 249° (WSW) 834 4.4 -14.6°
Drops below altitude 10° 00:37:40 10° 172° (S) 2,165 6.5 -14.1°
Sets 00:40:00 0° 169° (SSE) 3,080 7.3 -13.8°
